• In Latvia
  • List of Countries
  • For 7 days
  • Water Temperature
  • Satellite Maps
  • Weather Map
  • Weather Widgets
  • user-avatar
    Login

    Hourly Weather Graz

    Today, 20 September, Wednesday

    Time Temperature Precipitation Wind Pressure Humidity
    00:00 +8°C° 0.5 mm 2 mps 722 mmHg 95%
    01:00 +8°C° 0 mm 2 mps 722 mmHg 94%
    02:00 +8°C° 0.1 mm 3 mps 722 mmHg 93%
    03:00 +8°C° 0.1 mm 3 mps 722 mmHg 93%
    04:00 +8°C° 0.1 mm 3 mps 722 mmHg 92%
    05:00 +8°C° 0.1 mm 3 mps 722 mmHg 92%
    06:00 +9°C° 0.1 mm 3 mps 722 mmHg 91%
    07:00 +9°C° 0 mm 2 mps 723 mmHg 93%
    08:00 +10°C° 0.1 mm 2 mps 723 mmHg 90%
    09:00 +11°C° 0.1 mm 3 mps 723 mmHg 86%
    10:00 +11°C° 0.1 mm 3 mps 724 mmHg 83%
    11:00 +12°C° 0.1 mm 4 mps 724 mmHg 77%
    12:00 +13°C° 0.1 mm 4 mps 724 mmHg 70%
    13:00 +14°C° 0.1 mm 4 mps 724 mmHg 64%
    14:00 +14°C° 0 mm 4 mps 724 mmHg 63%
    15:00 +14°C° 0 mm 4 mps 724 mmHg 63%
    16:00 +14°C° 0 mm 3 mps 724 mmHg 62%
    17:00 +12°C° 0 mm 3 mps 724 mmHg 68%
    18:00 +12°C° 0 mm 2 mps 725 mmHg 74%
    19:00 +10°C° 0 mm 2 mps 725 mmHg 80%
    20:00 +9°C° 0 mm 2 mps 725 mmHg 82%
    21:00 +8°C° 0 mm 2 mps 725 mmHg 84%
    22:00 +8°C° 0 mm 2 mps 725 mmHg 86%
    23:00 +7°C° 0 mm 2 mps 726 mmHg 87%

    Tomorrow, 21 September, Thursday

    Time Temperature Precipitation Wind Pressure Humidity
    00:00 +7°C° 0 mm 2 mps 726 mmHg 87%
    01:00 +7°C° 0 mm 2 mps 726 mmHg 88%
    02:00 +7°C° 0 mm 2 mps 726 mmHg 88%
    03:00 +7°C° 0 mm 2 mps 726 mmHg 88%
    04:00 +7°C° 0 mm 2 mps 726 mmHg 88%
    05:00 +7°C° 0 mm 2 mps 726 mmHg 86%
    06:00 +8°C° 0 mm 2 mps 726 mmHg 85%
    07:00 +8°C° 0 mm 2 mps 726 mmHg 83%
    08:00 +10°C° 0 mm 2 mps 726 mmHg 74%
    09:00 +14°C° 0 mm 2 mps 726 mmHg 65%
    10:00 +16°C° 0 mm 3 mps 726 mmHg 56%
    11:00 +17°C° 0 mm 3 mps 726 mmHg 53%
    12:00 +17°C° 0 mm 2 mps 726 mmHg 51%
    13:00 +18°C° 0 mm 2 mps 726 mmHg 48%
    14:00 +18°C° 0 mm 2 mps 726 mmHg 49%
    15:00 +18°C° 0 mm 2 mps 725 mmHg 51%
    16:00 +19°C° 0 mm 1 mps 725 mmHg 52%
    17:00 +15°C° 0 mm 1 mps 725 mmHg 61%
    18:00 +13°C° 0 mm 1 mps 725 mmHg 70%
    19:00 +11°C° 0 mm 1 mps 725 mmHg 79%
    20:00 +10°C° 0 mm 1 mps 726 mmHg 81%
    21:00 +10°C° 0 mm 1 mps 726 mmHg 83%
    22:00 +9°C° 0 mm 1 mps 726 mmHg 85%
    23:00 +9°C° 0 mm 1 mps 726 mmHg 85%

    Day after tomorrow, 22 September, Friday

    Time Temperature Precipitation Wind Pressure Humidity
    00:00 +9°C° 0 mm 1 mps 726 mmHg 86%
    01:00 +9°C° 0 mm 1 mps 726 mmHg 87%
    02:00 +8°C° 0 mm 1 mps 726 mmHg 87%
    03:00 +8°C° 0 mm 1 mps 726 mmHg 86%
    04:00 +8°C° 0 mm 1 mps 726 mmHg 86%
    05:00 +9°C° 0 mm 1 mps 727 mmHg 83%
    06:00 +9°C° 0 mm 1 mps 727 mmHg 80%
    07:00 +10°C° 0 mm 1 mps 727 mmHg 78%
    08:00 +13°C° 0 mm 1 mps 727 mmHg 68%
    09:00 +15°C° 0 mm 0 mps 727 mmHg 58%
    10:00 +18°C° 0 mm 0 mps 727 mmHg 49%
    11:00 +19°C° 0 mm 0 mps 727 mmHg 46%
    12:00 +22°C° 0 mm 1 mps 728 mmHg 44%
    13:00 +23°C° 0 mm 1 mps 728 mmHg 41%
    14:00 +22°C° 0 mm 1 mps 727 mmHg 44%
    15:00 +22°C° 0 mm 1 mps 727 mmHg 47%
    16:00 +21°C° 0 mm 1 mps 727 mmHg 51%
    17:00 +19°C° 0 mm 1 mps 727 mmHg 61%
    18:00 +15°C° 0 mm 1 mps 728 mmHg 72%
    19:00 +12°C° 0 mm 0 mps 728 mmHg 82%
    20:00 +12°C° 0 mm 1 mps 728 mmHg 84%
    21:00 +12°C° 0 mm 1 mps 728 mmHg 86%
    22:00 +11°C° 0 mm 1 mps 729 mmHg 87%
    23:00 +11°C° 0 mm 1 mps 729 mmHg 87%

    23 September, Saturday

    Time Temperature Precipitation Wind Pressure Humidity
    00:00 +11°C° 0 mm 1 mps 729 mmHg 87%
    01:00 +11°C° 0 mm 1 mps 729 mmHg 88%
    02:00 +11°C° 0 mm 1 mps 729 mmHg 87%
    03:00 +10°C° 0 mm 1 mps 729 mmHg 87%
    04:00 +10°C° 0 mm 1 mps 729 mmHg 87%
    05:00 +11°C° 0 mm 1 mps 729 mmHg 85%
    06:00 +11°C° 0 mm 1 mps 729 mmHg 83%
    07:00 +12°C° 0 mm 1 mps 730 mmHg 81%
    08:00 +15°C° 0 mm 1 mps 730 mmHg 72%
    09:00 +17°C° 0 mm 0 mps 730 mmHg 63%
    10:00 +20°C° 0 mm 0 mps 730 mmHg 54%
    11:00 +20°C° 0 mm 0 mps 730 mmHg 52%
    12:00 +23°C° 0 mm 1 mps 729 mmHg 50%
    13:00 +24°C° 0 mm 1 mps 729 mmHg 48%
    14:00 +23°C° 0.2 mm 1 mps 729 mmHg 53%
    15:00 +22°C° 0.2 mm 1 mps 729 mmHg 58%
    16:00 +21°C° 0.2 mm 1 mps 728 mmHg 63%
    17:00 +19°C° 0.2 mm 1 mps 728 mmHg 71%
    18:00 +16°C° 0.2 mm 1 mps 728 mmHg 78%
    19:00 +13°C° 0.2 mm 0 mps 728 mmHg 86%
    20:00 +13°C° 0.2 mm 0 mps 728 mmHg 87%
    21:00 +13°C° 0.2 mm 1 mps 729 mmHg 89%
    22:00 +13°C° 0.2 mm 1 mps 729 mmHg 91%
    23:00 +13°C° 0.1 mm 1 mps 729 mmHg 91%

    24 September, Sunday

    Time Temperature Precipitation Wind Pressure Humidity
    00:00 +12°C° 0.1 mm 1 mps 728 mmHg 92%
    01:00 +12°C° 0.1 mm 1 mps 728 mmHg 93%
    02:00 +12°C° 0 mm 1 mps 728 mmHg 93%
    03:00 +12°C° 0 mm 1 mps 728 mmHg 94%
    04:00 +11°C° 0 mm 1 mps 728 mmHg 94%
    05:00 +12°C° 0 mm 1 mps 728 mmHg 93%
    06:00 +12°C° 0 mm 1 mps 728 mmHg 92%
    07:00 +12°C° 0 mm 1 mps 729 mmHg 91%
    08:00 +14°C° 0 mm 1 mps 729 mmHg 84%
    09:00 +16°C° 0 mm 1 mps 729 mmHg 76%
    10:00 +20°C° 0 mm 1 mps 729 mmHg 69%
    11:00 +20°C° 0.2 mm 1 mps 729 mmHg 64%
    12:00 +21°C° 0.2 mm 1 mps 728 mmHg 59%
    13:00 +22°C° 0.2 mm 1 mps 728 mmHg 55%
    14:00 +20°C° 0.2 mm 2 mps 728 mmHg 57%
    15:00 +20°C° 0.2 mm 2 mps 728 mmHg 60%
    16:00 +19°C° 0.2 mm 2 mps 728 mmHg 62%
    17:00 +17°C° 0.1 mm 2 mps 728 mmHg 70%
    18:00 +15°C° 0.1 mm 1 mps 728 mmHg 79%
    19:00 +13°C° 0.1 mm 1 mps 728 mmHg 87%
    20:00 +13°C° 0.3 mm 1 mps 728 mmHg 89%
    21:00 +12°C° 0.3 mm 1 mps 728 mmHg 91%
    22:00 +12°C° 0.3 mm 1 mps 728 mmHg 93%
    23:00 +12°C° 0.4 mm 1 mps 728 mmHg 94%

    25 September, Monday

    Time Temperature Precipitation Wind Pressure Humidity
    00:00 +12°C° 0.4 mm 1 mps 728 mmHg 94%
    01:00 +12°C° 0.4 mm 1 mps 728 mmHg 95%
    02:00 +12°C° 0.1 mm 1 mps 728 mmHg 94%
    03:00 +11°C° 0.1 mm 1 mps 728 mmHg 94%
    04:00 +11°C° 0.1 mm 1 mps 727 mmHg 94%
    05:00 +11°C° 0 mm 1 mps 727 mmHg 94%
    06:00 +12°C° 0 mm 1 mps 727 mmHg 93%
    07:00 +12°C° 0 mm 1 mps 727 mmHg 92%
    08:00 +13°C° 0.1 mm 1 mps 727 mmHg 87%
    09:00 +15°C° 0.1 mm 1 mps 727 mmHg 83%
    10:00 +16°C° 0.1 mm 1 mps 727 mmHg 78%
    11:00 +18°C° 0.4 mm 1 mps 727 mmHg 76%
    12:00 +18°C° 0.4 mm 1 mps 727 mmHg 74%
    13:00 +19°C° 0.4 mm 1 mps 726 mmHg 71%
    14:00 +19°C° 0.6 mm 1 mps 726 mmHg 73%
    15:00 +19°C° 0.6 mm 1 mps 726 mmHg 74%
    16:00 +18°C° 0.6 mm 1 mps 726 mmHg 76%
    17:00 +16°C° 0.4 mm 1 mps 726 mmHg 81%
    18:00 +14°C° 0.4 mm 1 mps 726 mmHg 87%
    19:00 +12°C° 0.4 mm 1 mps 726 mmHg 93%
    20:00 +12°C° 0.1 mm 1 mps 726 mmHg 93%
    21:00 +12°C° 0.1 mm 1 mps 726 mmHg 94%
    22:00 +11°C° 0.1 mm 1 mps 726 mmHg 95%
    23:00 +11°C° 0 mm 1 mps 726 mmHg 95%
    Show more